Location: Sternwarte ZA, Rosenfeld-Brittheim
(48.2889°N, 8.6789°E)
Time: 14:46:01
(UTC+01:00)

Tiangong 2 - Visible Passes

Search period start: 23 January 2018 00:00
Search period end: 02 February 2018 00:00
Orbit: 384 x 390 km, 42.8° (Epoch: 23 January)

Date Brightness Start Highest point End Pass type
(mag) Time Alt. Az. Time Alt. Az. Time Alt. Az.
23 Jan 2.6 06:32:48 19° SW 06:34:23 30° S 06:37:15 10° ESE visible
24 Jan 3.3 05:36:49 23° SE 05:36:49 23° SE 05:38:35 10° ESE visible
24 Jan 2.8 07:09:25 10° WSW 07:12:08 26° S 07:14:52 10° SE visible
25 Jan 2.4 06:13:03 28° SSW 06:13:33 29° S 06:16:23 10° ESE visible
26 Jan 4.1 05:17:01 15° ESE 05:17:01 15° ESE 05:17:46 10° ESE visible
26 Jan 3.0 06:49:17 13° WSW 06:51:14 21° SSW 06:53:44 10° SE visible
27 Jan 2.9 05:53:15 24° S 05:53:15 24° S 05:55:22 10° SE visible
27 Jan 3.7 07:27:52 10° SW 07:28:47 11° SSW 07:29:42 10° S visible
28 Jan 3.2 06:29:29 14° SW 06:30:16 16° SSW 06:32:16 10° SSE visible
29 Jan 3.9 05:33:30 14° SSE 05:33:30 14° SSE 05:34:09 10° SE visible
30 Jan 3.8 06:09:49 10° SSW 06:09:49 10° SSW 06:09:56 10° SSW visible
